Other Public Products
Issued by NWS Charleston, SC

Current Version | Previous Version | Graphics & Text | Print | Product List | Glossary On
Versions: 1 2 3 4 5 6 7 8 9 10 11 12 13 14 15 16 17 18 19 20 21 22 23 24 25 26 27 28 29 30 31 32 33 34 35 36 37 38 39 40 41 42 43 44 45 46 47 48 49 50
000
FPUS82 KCHS 231644
OPUCHS

TEST...KCHS/KSAV Gateway Observations...TEST
National Weather Service Charleston SC
1200 PM EDT SAT SEP 23 2017

NOTE: "fair" indicates few or no clouds below 12,000 feet with no
significant weather and/or obstructions to visibility.

SCZ050-WAZ558-NCZ071-TXZ119-213-PAZ071-DCZ001-FLZ074-172-MI076-
NYZ176-178-MAZ016-IL014-TNZ027-NJZ106-GAZ044-MD014-231700-

...Gateway Observations for Charleston International...

CITY           SKY/WX    TMP DP  RH WIND       PRES   REMARKS
Chas Airport   MOSUNNY   84  70  62 NE12      30.03S
Seattle        MOSUNNY   57  49  74 S5        30.10R
Charlotte      MOSUNNY   85  65  51 VRB6      30.09S
Dallas DFW     MOSUNNY   85  71  63 SE10      29.96S HX  90
Dallas Love    MOSUNNY   84  71  65 SE10      29.97S
Philladelphia  MOSUNNY   83  60  45 N13       30.06F
Wash National  MOSUNNY   83  59  44 NE7       30.10S
Baltimore      MOSUNNY   81  59  47 VRB6      30.09S
Miami          PTSUNNY   86  76  71 N6        29.85F HX  96
Detroit        MOSUNNY   83  65  54 CALM      30.16S
Newark         MOSUNNY   84  55  36 N13G21    30.05S
Laguardia      MOSUNNY   80  57  45 N15G22    30.04F
J F K          MOSUNNY   81  60  48 N18       30.05F
Boston Logan   MOSUNNY   72  60  66 NE9       30.02F
Ft. Lauderdale PTSUNNY   86  76  71 E13       29.85S HX  96
Chicago O`Hare SUNNY     89  65  44 VRB3      30.10S HX  91
Chicago Midway SUNNY     89  66  46 S5        30.10S HX  91
Houston Bush   MOSUNNY   86  74  67 SE10      29.95R HX  94
Houston Hobby  PTSUNNY   87  73  62 MISG      29.93S HX  94
Nashville      MOSUNNY   87  69  54 VRB3      30.09S HX  91
Atlanta        MOSUNNY   83  67  58 VRB3      30.08S

$$

GAZ044-118-TXZ119-213-NCZ071-DCZ001-MDZ014-506-PAZ021-071-NJZ106-
NYZ176-178-MAZ106-OHZ011-021-055-MIZ076-KYZ091-ILZ014-INZ047-
MNZ060-ONZ431-231700-

...Gateway Observations for Savannah International...

CITY           SKY/WX    TMP DP  RH WIND       PRES   REMARKS
Savannah Arpt  PTSUNNY   85  72  65 NE10      30.02S HX  91
Atlanta        MOSUNNY   83  67  58 VRB3      30.08S
Charlotte      MOSUNNY   85  65  51 VRB6      30.09S
Dallas DFW     MOSUNNY   85  71  63 SE10      29.96S HX  90
Houston Bush   MOSUNNY   86  74  67 SE10      29.95R HX  94
Wash National  MOSUNNY   83  59  44 NE7       30.10S
Wash Dulles    MOSUNNY   80  58  46 CALM      30.11S
Baltimore      MOSUNNY   81  59  47 VRB6      30.09S
Philadelphia   MOSUNNY   83  60  45 N13       30.06F
Newark         MOSUNNY   84  55  36 N13G21    30.05S
Laguardia      MOSUNNY   80  57  45 N15G22    30.04F
J F K          MOSUNNY   81  60  48 N18       30.05F
Boston         MOSUNNY   72  60  66 NE9       30.02F
Pittsburg      MOSUNNY   79  57  46 E3        30.17S
Akron          MOSUNNY   85  57  38 E6        30.17F
Cleveland      SUNNY     87  53  31 NE3       30.17F
Cincinnati     SUNNY     84  68  58 NE5       30.14S
Columbus       SUNNY     82  65  56 N6        30.13F
Detroit        MOSUNNY   83  65  54 CALM      30.16S
Chicago O`Hare SUNNY     89  65  44 VRB3      30.10S HX  91
Minneapolis    MOSUNNY   81  70  69 S9        29.96F
Indianapolis   MOSUNNY   86  66  51 CALM      30.14S
Toronto Canada MOSUNNY   88  57  35 W6        30.13S

$$




USA.gov is the U.S. government's official web portal to all federal, state and local government web resources and services.